TimeWET,TemperatureF,Dew PointF,Humidity,Sea Level PressureIn,VisibilityMPH,Wind Direction,Wind SpeedMPH,Gust SpeedMPH,PrecipitationIn,Events,Conditions,WindDirDegrees,DateUTC
12:00 AM,45,42,87,30.32,4,WNW,3.5,,,,Partly Cloudy,300,2014-03-26 00:00:00
12:00 AM,44.6,42.8,93,30.30,3.7,WNW,3.5,-,N/A,,Scattered Clouds,300,2014-03-26 00:00:00
12:40 AM,44.6,42.8,93,30.27,1.9,WSW,2.3,-,N/A,,Overcast,250,2014-03-26 00:40:00
1:00 AM,44.6,42.8,93,30.30,1.2,WSW,3.5,-,N/A,,Overcast,250,2014-03-26 01:00:00
2:00 AM,44.6,42.8,93,30.30,3.7,WNW,3.5,-,N/A,,Scattered Clouds,300,2014-03-26 02:00:00
3:00 AM,46,42,81,30.30,1,West,9.2,,,,Mist,260,2014-03-26 03:00:00
3:00 AM,46.4,42.8,87,30.30,1.9,West,9.2,-,N/A,,Overcast,260,2014-03-26 03:00:00
4:00 AM,46.4,42.8,87,30.27,2.5,West,9.2,-,N/A,,Overcast,260,2014-03-26 04:00:00
5:00 AM,46.4,41.0,81,30.24,2.5,SSW,9.2,-,N/A,,Mostly Cloudy,200,2014-03-26 05:00:00
6:00 AM,47,41,73,30.25,2,SSW,11.5,,,,Mist,210,2014-03-26 06:00:00
6:00 AM,46.4,41.0,81,30.21,2.5,SSW,9.2,-,N/A,,Mostly Cloudy,210,2014-03-26 06:00:00
7:00 AM,48.2,42.8,82,30.21,1.2,WSW,10.4,-,N/A,,Overcast,240,2014-03-26 07:00:00
8:00 AM,48.2,44.6,87,30.21,1.9,WSW,12.7,-,N/A,,Overcast,250,2014-03-26 08:00:00
9:00 AM,49,46,84,30.25,2,WSW,11.5,,,Rain,Light Drizzle,250,2014-03-26 09:00:00
9:00 AM,48.2,46.4,93,30.21,1.9,WSW,11.5,-,N/A,,Mostly Cloudy,250,2014-03-26 09:00:00
10:00 AM,50.0,46.4,87,30.21,1.9,WSW,9.2,-,N/A,,Mostly Cloudy,250,2014-03-26 10:00:00
11:00 AM,48.2,46.4,93,30.21,2.5,WNW,10.4,-,N/A,Rain,Rain,290,2014-03-26 11:00:00
12:00 PM,51,47,80,30.20,2,WSW,11.5,,,Rain,Light Rain,250,2014-03-26 12:00:00
12:00 PM,51.8,46.4,82,30.18,1.9,WSW,11.5,-,N/A,,Mostly Cloudy,250,2014-03-26 12:00:00
2:00 PM,53.6,41.0,62,30.15,3.1,WNW,12.7,-,N/A,,Mostly Cloudy,290,2014-03-26 14:00:00
3:00 PM,53,41,52,30.14,4,WNW,12.7,,,,Overcast,300,2014-03-26 15:00:00
3:00 PM,51.8,41.0,67,30.12,3.7,WNW,12.7,-,N/A,,Mostly Cloudy,300,2014-03-26 15:00:00
4:00 PM,51.8,39.2,62,30.12,3.7,WNW,10.4,-,N/A,,Mostly Cloudy,300,2014-03-26 16:00:00
5:00 PM,50.0,39.2,66,30.12,3.7,WNW,10.4,-,N/A,,Mostly Cloudy,290,2014-03-26 17:00:00
6:00 PM,49,39,59,30.16,4,WNW,8.1,,,,Mostly Cloudy,300,2014-03-26 18:00:00
6:00 PM,50.0,39.2,66,30.15,3.7,WNW,8.1,-,N/A,,Mostly Cloudy,300,2014-03-26 18:00:00
7:00 PM,50.0,37.4,62,30.15,3.7,West,8.1,-,N/A,,Mostly Cloudy,270,2014-03-26 19:00:00
8:00 PM,48.2,37.4,66,30.15,3.7,NW,9.2,-,N/A,,Mostly Cloudy,320,2014-03-26 20:00:00
9:00 PM,48,38,60,30.19,4,West,4.6,,,,Mostly Cloudy,280,2014-03-26 21:00:00
9:00 PM,48.2,39.2,71,30.18,3.7,West,4.6,-,N/A,,Mostly Cloudy,280,2014-03-26 21:00:00
10:00 PM,46.4,39.2,76,30.18,3.7,West,6.9,-,N/A,,Mostly Cloudy,280,2014-03-26 22:00:00
11:00 PM,46.4,37.4,71,30.18,3.7,WNW,4.6,-,N/A,,Mostly Cloudy,300,2014-03-26 23:00:00